Weather observations for the past three days for
Point Lay, Point Lay LRRS Airport
Imperial (Metric)
Date Time (akdt) Wind (mph) Vis. (mi.) Weather Sky Cond. Temperature (ºF) Relative Humidity Wind Chill (°F) Heat Index (°F) Pressure Precipitation (in)
Air Dwpt 6 hour altimeter (in) sea level (mb) 1 hr 3 hr 6 hr
Max. Min.
15 03:56 NE 14 10.00 Light Rain OVC007 39 37 43 39 93% 32 29.61 1003.0 0.01 0.11
15 02:56 NE 17 10.00 Light Rain BKN009 BKN019 OVC033 39 37 93% 31 29.6 1002.7 0.04
15 01:56 NE 16 G 24 10.00 Light Rain BKN007 OVC024 39 37.9 96% 31 29.59 1002.4 0.03
15 00:56 NE 18 8.00 Light Rain OVC007 39.9 37.9 93% 31 29.58 1002.0 0.02 0.03
14 23:56 NE 20 G 25 9.00 Light Rain OVC007 39.9 39 97% 31 29.57 1001.7
14 22:56 NE 22 G 28 10.00 Light Rain and Breezy BKN007 OVC017 41 39 93% 32 29.56 1001.3 0.01
14 21:56 NE 15 G 23 10.00 Light Rain OVC007 43 42.1 45 43 97% 36 29.55 1001.0 0.02 0.08
14 20:56 NE 15 10.00 Light Rain OVC007 45 43 93% 39 29.54 1000.7 0.02
14 19:56 NE 17 10.00 Light Rain OVC007 45 43 93% 38 29.54 1000.5 0.03
14 18:56 NE 14 10.00 Light Rain OVC009 45 43 93% 39 29.53 1000.3 0.01 0.01
14 17:56 N 13 10.00 Light Rain OVC007 44.1 42.1 93% 38 29.53 1000.3
14 16:56 N 12 10.00 Light Rain OVC005 43 41 93% 37 29.53 1000.2
14 15:56 N 14 10.00 Overcast OVC005 43 39.9 45 42.1 89% 37 29.53 1000.2
14 14:56 N 14 10.00 Overcast OVC005 42.1 39.9 92% 35 29.52 1000.1
14 13:56 N 17 10.00 Overcast OVC003 42.1 39.9 92% 34 29.52 1000.1
14 12:56 N 16 10.00 Overcast OVC007 43 41 93% 36 29.53 1000.3
14 11:56 N 16 10.00 Overcast OVC005 44.1 41 89% 37 29.53 1000.4
14 10:56 N 16 3.00 Fog/Mist OVC003 44.1 44.1 100% 37 29.53 1000.4
14 09:56 N 16 6.00 Fog/Mist OVC003 45 45 46 43 100% 38 29.53 1000.4
14 08:56 N 13 5.00 Fog/Mist OVC003 45 44.1 97% 39 29.54 1000.6
14 06:56 N 9 10.00 Overcast OVC003 43 43 100% 38 29.55 1001.0
14 00:56 N 8 10.00 Overcast OVC003 46.9 46 97% 44 29.57 1001.8
13 23:56 N 9 0.50 Fog OVC003 46 46 100% 42 29.57 1001.5
13 22:56 N 13 0.25 Fog OVC003 46 45 96% 41 29.57 1001.5
13 21:56 N 12 0.25 Fog OVC003 46.9 46 53.1 46 97% 42 29.56 1001.3
13 20:56 N 10 7.00 Overcast OVC003 48 46 93% 44 29.56 1001.2
13 19:56 N 12 10.00 Overcast OVC003 48.9 46.9 93% 45 29.55 1001.1
13 18:56 N 12 10.00 Overcast OVC007 48.9 46.9 93% 45 29.55 1000.9
13 17:56 N 9 10.00 Mostly Cloudy BKN005 52 48.9 89% 29.55 1000.9
13 16:56 N 8 10.00 Overcast BKN007 OVC036 52 48.9 89% 29.55 1001.0
13 15:56 N 7 10.00 Overcast OVC005 51.1 48 51.1 45 89% 29.55 1001.0 0.16
13 14:56 N 6 8.00 Light Rain OVC005 48 46.9 96% 46 29.55 1001.0
13 13:56 NE 8 10.00 Light Rain BKN005 OVC011 46.9 46 97% 44 29.55 1000.8
13 12:56 NE 12 10.00 Light Rain OVC005 46 45 96% 41 29.55 1000.8 0.02 0.16
13 11:56 N 13 10.00 Light Rain SCT005 OVC022 46 45 96% 41 29.54 1000.6 0.02
13 10:56 NE 12 10.00 Rain BKN005 BKN012 OVC034 46 44.1 93% 41 29.55 1000.8 0.12
13 09:56 NE 12 9.00 Rain BKN009 OVC048 46 44.1 48.9 45 93% 41 29.54 1000.6 0.05 0.05
13 08:56 NE 14 10.00 Light Rain BKN042 OVC065 46 43 89% 40 29.53 1000.2
13 07:56 NE 17 10.00 Overcast BKN038 BKN050 OVC095 46 43 89% 40 29.54 1000.5
13 06:56 NE 16 10.00 Mostly Cloudy SCT048 BKN120 45 43 93% 38 29.54 1000.7
13 05:56 NE 17 10.00 Fair CLR 46 43 89% 40 29.54 1000.6
13 04:56 NE 16 G 23 10.00 Fair CLR 48 44.1 86% 42 29.55 1000.9
13 03:56 NE 15 10.00 Fair CLR 48.9 46 57.9 48.9 90% 44 29.56 1001.2 0.07
13 02:56 NE 16 10.00 Fair CLR 51.1 48 89% 29.57 1001.5
13 01:56 NE 17 10.00 Fair CLR 54 50 87% 29.58 1001.8 0.01
13 00:56 NE 18 10.00 Rain OVC075 55.9 52 87% 29.58 1002.1 0.06 0.06
12 23:56 NE 17 10.00 Overcast OVC080 55.9 51.1 84% 29.6 1002.7
12 22:56 N 16 10.00 Mostly Cloudy BKN095 55.9 50 81% 29.6 1002.8
12 21:56 N 13 10.00 Overcast OVC095 57 52 62.1 55 83% 29.62 1003.5
12 20:56 N 15 10.00 Mostly Cloudy BKN090 57.9 52 81% 29.63 1003.7
12 19:56 NE 15 10.00 Overcast OVC090 61 51.1 70% 29.65 1004.3
12 18:56 NE 13 10.00 Overcast OVC100 61 50 67% 29.66 1004.8
12 17:56 NE 16 10.00 Overcast OVC085 59 48.9 69% 29.68 1005.3
12 16:56 NE 13 10.00 Overcast OVC095 57.9 48.9 72% 29.7 1006.0
12 15:56 NE 12 10.00 Overcast OVC100 55 48 55 48.9 77% 29.72 1006.6
12 14:56 NE 13 10.00 Overcast FEW012 SCT080 OVC110 53.1 46.9 80% 29.74 1007.3
12 13:56 NE 14 10.00 Overcast BKN010 OVC120 51.1 46.9 86% 29.75 1007.8
12 12:56 NE 10 10.00 Overcast BKN008 OVC120 51.1 46 83% 29.76 1008.2
12 11:56 NE 15 10.00 Overcast OVC008 48.9 46 90% 44 29.78 1008.8
12 10:56 NE 13 10.00 Light Rain BKN008 OVC070 50 46.9 89% 46 29.79 1009.1
12 09:56 NE 13 10.00 Overcast SCT006 SCT065 OVC085 50 46.9 53.1 50 89% 46 29.79 1009.3 0.01
12 08:56 NE 9 10.00 Light Rain BKN060 OVC080 50 48 93% 47 29.8 1009.6
12 07:56 NE 9 10.00 Light Rain FEW055 OVC080 50 48 93% 47 29.82 1010.2
12 06:56 E 13 10.00 Light Rain OVC080 50 48 93% 46 29.83 1010.5 0.01
12 05:56 NE 10 10.00 Overcast OVC085 52 50 93% 29.83 1010.5
12 04:56 NE 7 10.00 Light Rain OVC080 53.1 52 96% 29.84 1010.8 0.01
Date Time (akdt) Wind (mph) Vis. (mi.) Weather Sky Cond. Air Dwpt Max. Min. Relative Humidity Wind Chill (°F) Heat Index (°F) altimeter (in) sea level (mb) 1 hr 3 hr 6 hr
6 hour
Temperature (ºF) Pressure Precipitation (in)